sat.trackr.live / text

‹ back to catalog

YAOGAN-37

NORAD 55244 · 2023-006C

PAYLOAD ACTIVE UNKNOWN

§ Identity

Operator
Country
PRC
Launch date
2023-01-13
Launch site
JSC
Launch vehicle
Mass (kg)
RCS (m²)

External: N2YO · Heavens-Above · Gunter

§ Orbital elements

Epoch: 2026-05-25T04:06:32.582880Z

Period
94.93 min
Inclination
43.1966°
Eccentricity
0.0018098
Mean motion
15.16955832 rev/d
Perigee alt
502.6 km
Apogee alt
527.5 km
Semi-major
6,893.2 km
B*
2.6054e-4
RAAN
250.1739°
Arg perigee
230.3078°
Mean anomaly
129.6177°
Rev number
18,638

§ Raw data

YAOGAN-371 55244U 23006C   26145.17121045  .00005018  00000+0  26054-3 0  99932 55244  43.1966 250.1739 0018098 230.3078 129.6177 15.16955832186381

JSON: /api/v1/satellites/55244 · /tle

For live sub-satellite position, see the globe view (requires WebGL).

§ Visibility from observer

Set your observer location to see the next 7 days of passes ≥ 10°. The values pass through the URL so the page stays shareable.

No JS? Fill the form by hand. The geolocation button needs JavaScript.